Atoka, OK

11:10 AM CST on December 12, 2019 (GMT -0600)
Atoka Municipal

Weather History for KAQR - June, 2019

Change the Weather History Date:

Monday, June 3, 2019

  Actual Average (KMLC) Record (KMLC)
Temperature  
Mean Temperature 78 °F -  
Max Temperature 87 °F 81 °F 96 °F (1958)
Min Temperature 68 °F 64 °F 53 °F (1964)
Cooling Degree Days 12    
Growing Degree Days 28 (Base 50)    
Moisture  
Dew Point 70 °F    
Average Humidity 93    
Maximum Humidity 100    
Minimum Humidity 55    
Precipitation  
Precipitation 0.42 in - - ()
Sea Level Pressure  
Sea Level Pressure 29.97 in    
Wind  
Wind Speed 2 mph (SE)    
Max Wind Speed 15 mph    
Max Gust Speed 22 mph    
Visibility 9 miles    
Events Rain , Thunderstorm    
Averages and records for this station are not official NWS values.
T = Trace of Precipitation, MM = Missing Value Source: NWS Daily Summary

Daily Weather History Graph

Daily Weather History Graph

Search for Another Location

Airport or City:

Astronomy

Jun. 03, 2019 Rise Set
Actual Time 6:12 AM CDT 8:32 PM CDT
Civil Twilight 5:43 AM CDT 9:01 PM CDT
Nautical Twilight 5:08 AM CDT 9:37 PM CDT
Astronomical Twilight 4:29 AM CDT 10:16 PM CDT
Moon 6:32 AM CDT (6/3) 9:00 PM CDT (6/3)
Length of Visible Light 15h 17m
Length of Day
14h 19m
New Moon, 0% of the Moon is Illuminated
Jun 3
New Moon
Jun 10
First Quarter
Jun 17
Full
Jun 25
Last Quarter
Jul 2
New

Hourly Weather History & Observations

Time (CDT) Temp. Heat Index Dew Point Humidity Pressure Visibility Wind Dir Wind Speed Gust Speed Precip Events Conditions
12:15 AM 69.8 °F - 69.8 °F 100% 29.98 in 10.0 mi Calm Calm - N/A   Scattered Clouds
12:35 AM 69.8 °F - 69.8 °F 100% 29.98 in 7.0 mi Calm Calm - N/A   Clear
12:55 AM 69.8 °F - 69.8 °F 100% 29.97 in 7.0 mi Calm Calm - N/A   Clear
1:15 AM 69.8 °F - 69.8 °F 100% 29.97 in 10.0 mi Calm Calm - N/A   Clear
1:55 AM 68.0 °F - 68.0 °F 100% 29.95 in 10.0 mi Calm Calm - N/A   Clear
2:15 AM 68.0 °F - 68.0 °F 100% 29.96 in 10.0 mi Calm Calm - N/A   Clear
2:35 AM 69.8 °F - 69.8 °F 100% 29.96 in 10.0 mi Calm Calm - N/A   Scattered Clouds
2:50 AM 69.8 °F - 69.8 °F 100% 29.96 in 7.0 mi Calm Calm - N/A   Mostly Cloudy
3:10 AM 68.0 °F - 68.0 °F 100% 29.97 in 7.0 mi Calm Calm - N/A   Scattered Clouds
3:35 AM 69.8 °F - 69.8 °F 100% 29.96 in 10.0 mi Calm Calm - N/A   Clear
3:55 AM 68.0 °F - 68.0 °F 100% 29.95 in 10.0 mi Calm Calm - N/A   Clear
4:15 AM 68.0 °F - 68.0 °F 100% 29.95 in 10.0 mi Calm Calm - N/A   Clear
4:35 AM 68.0 °F - 68.0 °F 100% 29.96 in 10.0 mi Calm Calm - N/A   Clear
4:55 AM 68.0 °F - 68.0 °F 100% 29.96 in 7.0 mi Calm Calm - N/A   Clear
5:15 AM 68.0 °F - 68.0 °F 100% 29.96 in 7.0 mi Calm Calm - N/A   Clear
5:35 AM 69.8 °F - 69.8 °F 100% 29.96 in 10.0 mi Calm Calm - N/A   Scattered Clouds
5:55 AM 69.8 °F - 69.8 °F 100% 29.96 in 10.0 mi Calm Calm - N/A   Clear
6:15 AM 69.8 °F - 69.8 °F 100% 29.96 in 10.0 mi Calm Calm - N/A   Scattered Clouds
6:35 AM 69.8 °F - 69.8 °F 100% 29.97 in 10.0 mi Calm Calm - N/A   Mostly Cloudy
6:55 AM 69.8 °F - 69.8 °F 100% 29.97 in 10.0 mi Calm Calm - N/A   Mostly Cloudy
7:15 AM 71.6 °F - 71.6 °F 100% 29.98 in 10.0 mi Calm Calm - N/A   Mostly Cloudy
7:35 AM 71.6 °F - 71.6 °F 100% 29.99 in 10.0 mi Calm Calm - N/A   Mostly Cloudy
7:55 AM 71.6 °F - 71.6 °F 100% 29.98 in 10.0 mi Calm Calm - N/A   Scattered Clouds
8:15 AM 73.4 °F - 71.6 °F 94% 29.99 in 10.0 mi Calm Calm - N/A   Mostly Cloudy
8:35 AM 73.4 °F - 71.6 °F 94% 29.99 in 10.0 mi SE 3.5 mph - N/A   Mostly Cloudy
8:55 AM 75.2 °F - 73.4 °F 94% 29.98 in 10.0 mi ESE 3.5 mph - N/A   Scattered Clouds
9:15 AM 77.0 °F - 73.4 °F 89% 29.98 in 10.0 mi SSE 3.5 mph - N/A   Scattered Clouds
9:35 AM 77.0 °F - 73.4 °F 89% 29.99 in 10.0 mi ESE 3.5 mph - N/A   Scattered Clouds
9:55 AM 78.8 °F - 71.6 °F 78% 29.99 in 10.0 mi SSE 3.5 mph - N/A   Scattered Clouds
10:15 AM 78.8 °F - 69.8 °F 74% 29.98 in 10.0 mi SE 4.6 mph - N/A   Mostly Cloudy
10:35 AM 80.6 °F 84.6 °F 71.6 °F 74% 29.98 in 10.0 mi SSE 4.6 mph - N/A Thunderstorm Scattered Clouds
10:55 AM 80.6 °F 84.6 °F 71.6 °F 74% 29.98 in 10.0 mi SSE 6.9 mph - N/A Thunderstorm Mostly Cloudy
11:15 AM 82.4 °F 87.2 °F 71.6 °F 70% 29.98 in 10.0 mi SE 4.6 mph - N/A   Scattered Clouds
11:35 AM 82.4 °F 87.2 °F 71.6 °F 70% 29.98 in 10.0 mi SSE 5.8 mph - N/A   Clear
11:55 AM 84.2 °F 89.6 °F 71.6 °F 66% 29.98 in 10.0 mi SSE 6.9 mph - N/A   Clear
12:15 PM 86.0 °F 91.8 °F 71.6 °F 62% 29.98 in 10.0 mi SSE 4.6 mph - N/A   Scattered Clouds
12:35 PM 86.0 °F 93.4 °F 73.4 °F 66% 29.97 in 10.0 mi South 5.8 mph - N/A   Scattered Clouds
12:55 PM 87.8 °F 93.8 °F 71.6 °F 58% 29.95 in 10.0 mi SW 8.1 mph - N/A   Scattered Clouds
1:15 PM 87.8 °F 92.6 °F 69.8 °F 55% 29.95 in 10.0 mi SSW 5.8 mph - N/A   Clear
1:35 PM 82.4 °F 88.2 °F 73.4 °F 74% 29.94 in 4.0 mi SW 8.1 mph - 0.03 in Rain , Thunderstorm Heavy Thunderstorms and Rain
2:15 PM 71.6 °F - 69.8 °F 94% 29.94 in 10.0 mi ENE 3.5 mph - 0.08 in Thunderstorm Mostly Cloudy
2:55 PM 77.0 °F - 73.4 °F 89% 29.92 in 10.0 mi Calm Calm - 0.08 in Rain , Thunderstorm Light Thunderstorms and Rain
3:15 PM 77.0 °F - 73.4 °F 89% 29.97 in 5.0 mi South 3.5 mph - 0.01 in Rain , Thunderstorm Heavy Thunderstorms and Rain
3:35 PM 71.6 °F - 71.6 °F 100% 29.93 in 5.0 mi ENE 13.8 mph 21.9 mph 0.09 in Rain , Thunderstorm Light Thunderstorms and Rain
3:55 PM 71.6 °F - 69.8 °F 94% 29.92 in 10.0 mi ENE 15.0 mph 19.6 mph 0.09 in Thunderstorm Thunderstorm
4:15 PM 71.6 °F - 71.6 °F 100% 29.96 in 1.5 mi West 6.9 mph 21.9 mph 0.14 in Rain , Thunderstorm Heavy Thunderstorms and Rain
4:35 PM 69.8 °F - 69.8 °F 100% 29.94 in 7.0 mi East 9.2 mph - 0.22 in Rain , Thunderstorm Light Thunderstorms and Rain
4:55 PM 71.6 °F - 71.6 °F 100% 29.95 in 10.0 mi SE 5.8 mph - 0.22 in Thunderstorm Mostly Cloudy
5:15 PM 71.6 °F - 71.6 °F 100% 29.96 in 10.0 mi NE 8.1 mph - N/A   Overcast
5:35 PM 71.6 °F - 71.6 °F 100% 29.95 in 10.0 mi Calm Calm - N/A   Overcast
5:55 PM 73.4 °F - 71.6 °F 94% 29.95 in 10.0 mi ESE 8.1 mph 18.4 mph N/A   Scattered Clouds
6:15 PM 73.4 °F - 69.8 °F 88% 29.97 in 10.0 mi NE 6.9 mph - N/A   Clear
6:35 PM 73.4 °F - 69.8 °F 88% 29.96 in 10.0 mi East 9.2 mph - N/A   Scattered Clouds
6:55 PM 71.6 °F - 69.8 °F 94% 29.97 in 10.0 mi SE 10.4 mph 18.4 mph N/A   Clear
7:15 PM 69.8 °F - 69.8 °F 100% 29.96 in 10.0 mi ESE 6.9 mph 17.3 mph N/A   Scattered Clouds
7:35 PM 69.8 °F - 69.8 °F 100% 29.98 in 10.0 mi SE 8.1 mph - N/A Rain Light Rain
7:55 PM 69.8 °F - 69.8 °F 100% 29.98 in 10.0 mi SSE 5.8 mph - N/A Rain , Thunderstorm Light Thunderstorms and Rain
8:15 PM 69.8 °F - 69.8 °F 100% 29.98 in 10.0 mi SSE 6.9 mph - N/A Thunderstorm Unknown
8:35 PM 69.8 °F - 68.0 °F 94% 29.97 in 10.0 mi SE 5.8 mph - N/A Rain Light Rain
8:55 PM 69.8 °F - 68.0 °F 94% 29.97 in 10.0 mi SE 5.8 mph - N/A   Clear
9:15 PM 69.8 °F - 68.0 °F 94% 29.96 in 10.0 mi ESE 4.6 mph - N/A   Clear
9:35 PM 69.8 °F - 68.0 °F 94% 29.97 in 10.0 mi Calm Calm - N/A   Clear
9:50 PM 68.0 °F - 68.0 °F 100% 29.97 in 10.0 mi Calm Calm - N/A   Clear
10:15 PM 68.0 °F - 68.0 °F 100% 29.97 in 10.0 mi SE 3.5 mph - N/A   Clear
10:35 PM 68.0 °F - 68.0 °F 100% 29.97 in 10.0 mi Calm Calm - N/A   Clear
10:55 PM 68.0 °F - 68.0 °F 100% 29.99 in 10.0 mi Calm Calm - N/A   Clear
11:15 PM 68.0 °F - 68.0 °F 100% 30.00 in 10.0 mi Calm Calm - N/A   Clear
11:35 PM 68.0 °F - 68.0 °F 100% 30.00 in 10.0 mi Calm Calm - N/A   Clear
11:55 PM 68.0 °F - 68.0 °F 100% 30.00 in 10.0 mi Calm Calm - N/A   Clear